User: anonymous   Login
Location: Bílinka
(49.3579°N, 14.3767°E)
Time: 13:29:58
(UTC+00:00)
Language:

FENGYUN 1C DEB - Orbit

View from above orbital plane
View from above orbital plane
View from above satellite
View from above satellite

Ground track
Ground track

The orbit data is extracted from the following two-line orbital elements,

1 30608U 99025AMP 24054.14587295  .00002041  00000-0  93025-3 0  9997
2 30608  98.7815 112.2289 0009270 287.3397 127.4112 14.22727671880563
Epoch (UTC): 23 February 2024 03:30:03
Eccentricity: 0.0009270
inclination: 98.7815°
perigee height: 809 km
apogee height: 823 km
right ascension of ascending node: 112.2289°
argument of perigee: 287.3397°
revolutions per day: 14.22727671
mean anomaly at epoch: 127.4112°
orbit number at epoch: 88056

The dashed part of the orbit path shows where the satellite is in the earth's shadow,  

DLR